Regional Weather Roundup
Issued by NWS

Home | Current Version | Previous Version | Text Only | Print | Product List | Glossary On
Versions: 1 2 3 4 5 6 7 8 9 10 11 12 13 14 15 16 17 18 19 20 21 22 23 24 25 26 27
000
ASCA42 TJSJ 182110
RWRPR
PUERTO RICO/U.S. VIRGIN ISLANDS HOURLY WEATHER ROUNDUP
NATIONAL WEATHER SERVICE SAN JUAN PR
500 PM AST FRI AUG 18 2017

PRZ001>002-007>008-010-182200-
PUERTO RICO

CITY           SKY/WX    TMP DP  RH WIND       PRES   REMARKS
SAN JUAN LMM   MOSUNNY   86  75  70 E16G23    29.91R HX  95
AGUADILLA      SUNNY     86  73  66 E23       29.91S HX  93
CEIBA          PTSUNNY   86  75  70 NE12      29.93S HX  95
$$

VIZ001>002-182200-
U.S. VIRGIN ISLANDS

CITY           SKY/WX    TMP DP  RH WIND       PRES   REMARKS
CHARLOTTE AMA  MOSUNNY   86  75  70 NE9G22    29.90R HX  95
CHRISTIANSTED  PTSUNNY   88  75  66 NE16G22   29.89S HX  97
$$

HOURLY WEATHER ROUNDUP FOR THE NEWS MEDIA

CITY           SKY/WX    TMP DP  RH WIND       PRES   REMARKS
ORLANDO        LGT RAIN  82  75  79 W24G32    29.99R
NEW YORK       CLOUDY    78  78 100 S17       29.79F
NEWARK         CLOUDY    83  77  82 S7        29.76F HX  92
CHICAGO        MOSUNNY   82  59  45 W13       29.84F
HARTFORD       LGT RAIN  72  70  93 S8        29.85F
BOSTON         CLOUDY    76  71  85 S15       29.82F
DALLAS         CLOUDY    87  72  60 SW7       29.99F HX  93
PHILADELPHIA   CLOUDY    88  76  67 S7        29.77R HX  99
LOS ANGELES    MOSUNNY   74  63  68 W14       29.99F
WASHINGTON DC  CLOUDY    91  73  55 SW10G18   29.75F HX  99



USA.gov is the U.S. government's official web portal to all federal, state and local government web resources and services.